Weather History for Glasgow, KY

Change the Weather History Date:

Monday, November 19, 2012

  Actual Average Record
Temperature  
Mean Temperature 46 °F -  
Max Temperature 63 °F 58 °F 76 °F (1953)
Min Temperature 29 °F 38 °F 19 °F (2008)
Degree Days  
Heating Degree Days 19    
Moisture  
Dew Point 33 °F    
Average Humidity 70    
Maximum Humidity 100    
Minimum Humidity 27    
Precipitation  
Precipitation 0.00 in - - ()
Sea Level Pressure  
Sea Level Pressure 30.28 in    
Wind  
Wind Speed 0 mph (NW)    
Max Wind Speed 4 mph    
Max Gust Speed -    
Visibility 10 miles    
Events      
Averages and records for this station are not official NWS values.
T = Trace of Precipitation, MM = Missing Value Source: NWS Daily Summary

Daily Weather History Graph

Daily Weather History Graph

Search for Another Location

Airport:

Trip Planner

Search our weather history database for the weather conditions in past years. The results will help you decide how hot, cold, wet, or windy it might be!

Date:

Astronomy

Nov. 19, 2012 Rise Set
Actual Time 6:27 AM CST 4:31 PM CST
Civil Twilight 5:59 AM CST 4:59 PM CST
Nautical Twilight 5:27 AM CST 5:30 PM CST
Astronomical Twilight 4:56 AM CST 6:01 PM CST
Moon 11:32 AM CST (11/19) 10:53 PM CST (11/19)
Length of Visible Light 11h 00m
Length of Day
10h 04m
Waxing Crescent, 41% of the Moon is Illuminated
Nov 19
Waxing Crescent
Nov 20
First Quarter
Nov 28
Full
Dec 6
Last Quarter
Dec 13
New

Hourly Weather History & Observations

Time (CST) Temp. Dew Point Humidity Pressure Visibility Wind Dir Wind Speed Gust Speed Precip Events Conditions
12:15 AM 33.6 °F 30.9 °F 90% 30.34 in 10.0 mi Calm Calm - N/A   Clear
12:35 AM 32.9 °F 30.6 °F 91% 30.34 in 10.0 mi Calm Calm - N/A   Clear
12:55 AM 32.2 °F 31.8 °F 99% 30.34 in 10.0 mi Calm Calm - N/A   Clear
1:15 AM 31.6 °F 31.6 °F 100% 30.33 in 10.0 mi Calm Calm - N/A   Clear
1:35 AM 31.6 °F 31.6 °F 100% 30.33 in 10.0 mi Calm Calm - N/A   Clear
1:55 AM 31.3 °F 31.3 °F 100% 30.33 in 10.0 mi Calm Calm - N/A   Clear
2:15 AM 31.5 °F 31.5 °F 100% 30.33 in 10.0 mi Calm Calm - N/A   Clear
2:35 AM 31.3 °F 31.3 °F 100% 30.33 in 10.0 mi Calm Calm - N/A   Clear
2:55 AM 31.3 °F 31.3 °F 100% 30.32 in 10.0 mi Calm Calm - N/A   Clear
3:15 AM 30.6 °F 30.6 °F 100% 30.33 in 10.0 mi Calm Calm - N/A   Clear
4:15 AM 29.7 °F 29.3 °F 99% 30.33 in 10.0 mi Calm Calm - N/A   Clear
4:55 AM 29.8 °F 29.8 °F 100% 30.33 in 10.0 mi Calm Calm - N/A   Clear
5:15 AM 29.8 °F 29.8 °F 100% 30.33 in 10.0 mi Calm Calm - N/A   Clear
5:35 AM 29.1 °F 29.1 °F 100% 30.33 in 10.0 mi Calm Calm - N/A   Clear
5:55 AM 29.1 °F 29.1 °F 100% 30.32 in 10.0 mi Calm Calm - N/A   Clear
6:15 AM 29.3 °F 29.3 °F 100% 30.32 in 10.0 mi Calm Calm - N/A   Clear
6:35 AM 29.5 °F 29.5 °F 100% 30.33 in 10.0 mi Calm Calm - N/A   Clear
6:55 AM 30.4 °F 30.4 °F 100% 30.33 in 10.0 mi Calm Calm - N/A   Clear
7:15 AM 31.3 °F 31.3 °F 100% 30.33 in 10.0 mi Calm Calm - N/A   Clear
7:35 AM 32.0 °F 31.8 °F 99% 30.34 in 10.0 mi Calm Calm - N/A   Clear
7:55 AM 32.7 °F 32.7 °F 100% 30.34 in 10.0 mi Calm Calm - N/A   Clear
8:15 AM 36.1 °F 34.3 °F 93% 30.33 in 10.0 mi Calm Calm - N/A   Clear
8:35 AM 39.4 °F 35.6 °F 86% 30.34 in 10.0 mi Calm Calm - N/A   Clear
8:55 AM 40.6 °F 37.0 °F 87% 30.34 in 10.0 mi Calm Calm - N/A   Clear
9:15 AM 42.3 °F 38.1 °F 85% 30.34 in 10.0 mi Calm Calm - N/A   Clear
9:35 AM 45.3 °F 38.7 °F 78% 30.34 in 10.0 mi Calm Calm - N/A   Clear
9:55 AM 46.8 °F 36.3 °F 67% 30.34 in 10.0 mi Calm Calm - N/A   Clear
10:15 AM 47.8 °F 35.2 °F 62% 30.34 in 10.0 mi Calm Calm - N/A   Clear
10:35 AM 49.6 °F 35.4 °F 58% 30.34 in 10.0 mi Calm Calm - N/A   Clear
10:55 AM 51.4 °F 34.9 °F 53% 30.33 in 10.0 mi Calm Calm - N/A   Clear
11:15 AM 53.1 °F 35.8 °F 52% 30.32 in 10.0 mi Calm Calm - N/A   Clear
11:35 AM 54.7 °F 35.6 °F 49% 30.31 in 10.0 mi Calm Calm - N/A   Clear
11:55 AM 57.2 °F 36.0 °F 45% 30.30 in 10.0 mi Calm Calm - N/A   Clear
12:15 PM 58.6 °F 34.5 °F 40% 30.29 in 10.0 mi WNW 3.5 mph - N/A   Clear
12:35 PM 59.7 °F 32.7 °F 36% 30.27 in 10.0 mi Calm Calm - N/A   Clear
12:55 PM 60.8 °F 31.5 °F 33% 30.27 in 10.0 mi Calm Calm - N/A   Clear
1:15 PM 62.1 °F 29.5 °F 29% 30.26 in 10.0 mi NNW 3.5 mph - N/A   Clear
1:35 PM 62.6 °F 29.3 °F 28% 30.26 in 10.0 mi Calm Calm - N/A   Clear
1:55 PM 63.9 °F 29.1 °F 27% 30.25 in 10.0 mi Calm Calm - N/A   Clear
2:35 PM 62.1 °F 30.4 °F 30% 30.24 in 10.0 mi Calm Calm - N/A   Clear
2:55 PM 62.1 °F 29.8 °F 30% 30.24 in 10.0 mi Calm Calm - N/A   Clear
3:15 PM 62.6 °F 30.0 °F 29% 30.23 in 10.0 mi Calm Calm - N/A   Clear
3:35 PM 61.9 °F 30.2 °F 30% 30.23 in 10.0 mi Calm Calm - N/A   Clear
3:55 PM 61.7 °F 30.2 °F 30% 30.22 in 10.0 mi Calm Calm - N/A   Clear
4:15 PM 60.1 °F 30.9 °F 33% 30.22 in 10.0 mi Calm Calm - N/A   Clear
4:35 PM 57.2 °F 31.8 °F 38% 30.21 in 10.0 mi Calm Calm - N/A   Clear
4:55 PM 54.5 °F 32.0 °F 42% 30.21 in 10.0 mi Calm Calm - N/A   Clear
5:15 PM 53.1 °F 32.0 °F 45% 30.21 in 10.0 mi Calm Calm - N/A   Clear
5:35 PM 51.4 °F 32.9 °F 49% 30.21 in 10.0 mi Calm Calm - N/A   Clear
5:55 PM 48.9 °F 34.0 °F 56% 30.21 in 10.0 mi Calm Calm - N/A   Clear
6:15 PM 48.0 °F 34.0 °F 58% 30.21 in 10.0 mi Calm Calm - N/A   Clear
6:35 PM 48.7 °F 34.5 °F 58% 30.22 in 10.0 mi Calm Calm - N/A   Clear
6:55 PM 48.6 °F 35.4 °F 60% 30.21 in 10.0 mi Calm Calm - N/A   Clear
7:15 PM 48.0 °F 36.1 °F 63% 30.22 in 10.0 mi Calm Calm - N/A   Clear
7:35 PM 47.1 °F 36.9 °F 68% 30.22 in 10.0 mi Calm Calm - N/A   Clear
8:15 PM 47.5 °F 37.2 °F 68% 30.21 in 10.0 mi Calm Calm - N/A   Clear
8:35 PM 47.5 °F 37.2 °F 68% 30.21 in 10.0 mi Calm Calm - N/A   Clear
8:55 PM 47.5 °F 37.0 °F 67% 30.21 in 10.0 mi Calm Calm - N/A   Clear
9:15 PM 46.9 °F 37.8 °F 70% 30.20 in 10.0 mi Calm Calm - N/A   Clear
9:35 PM 46.4 °F 37.9 °F 72% 30.21 in 10.0 mi Calm Calm - N/A   Scattered Clouds
9:55 PM 46.6 °F 37.6 °F 71% 30.20 in 10.0 mi Calm Calm - N/A   Mostly Cloudy
10:15 PM 46.4 °F 38.8 °F 75% 30.20 in 10.0 mi Calm Calm - N/A   Overcast
10:35 PM 46.6 °F 38.7 °F 74% 30.19 in 10.0 mi Calm Calm - N/A   Overcast
11:15 PM 46.4 °F 39.0 °F 75% 30.19 in 10.0 mi Calm Calm - N/A   Overcast
11:35 PM 46.6 °F 38.8 °F 74% 30.19 in 10.0 mi Calm Calm - N/A   Overcast
11:55 PM 46.8 °F 38.1 °F 72% 30.18 in 10.0 mi Calm Calm - N/A   Overcast